Luxor, Egypt

1:56 AM EET on February 19, 2018 (GMT +0200)
Luxor

Weather History for HELX - December, 2012

Change the Weather History Date:

Monday, December 10, 2012

  Actual Average Record
Temperature  
Mean Temperature 64 °F -  
Max Temperature 77 °F 71 °F 84 °F (2005)
Min Temperature 52 °F 45 °F 44 °F (2011)
Growing Degree Days 14 (Base 50)    
Moisture  
Dew Point 46 °F    
Average Humidity 51    
Maximum Humidity 72    
Minimum Humidity 22    
Precipitation  
Precipitation 0.00 in 0.00 in - ()
Sea Level Pressure  
Sea Level Pressure 29.97 in    
Wind  
Wind Speed 1 mph ()    
Max Wind Speed 10 mph    
Max Gust Speed -    
Visibility 5.5 miles    
Events      
Averages and records for this station are not official NWS values.
T = Trace of Precipitation, MM = Missing Value Source: Averaged Metar Reports

Daily Weather History Graph

Daily Weather History Graph

Search for Another Location

Airport or City:

Trip Planner

Search our weather history database for the weather conditions in past years. The results will help you decide how hot, cold, wet, or windy it might be!

Date:

Astronomy

Dec. 10, 2012 Rise Set
Actual Time 6:24 AM EET 4:59 PM EET
Civil Twilight 5:59 AM EET 5:24 PM EET
Nautical Twilight 5:31 AM EET 5:52 PM EET
Astronomical Twilight 5:03 AM EET 6:21 PM EET
Moon 2:57 AM EET (12/10) 2:22 PM EET (12/10)
Length of Visible Light 11h 24m
Length of Day
10h 34m
Waning Crescent, 12% of the Moon is Illuminated
Dec 10
Waning Crescent
Dec 13
New
Dec 20
First Quarter
Dec 28
Full
Jan 5
Last Quarter

Hourly Weather History & Observations

Time (EET) Temp. Dew Point Humidity Pressure Visibility Wind Dir Wind Speed Gust Speed Precip Events Conditions
12:00 AM 62.6 °F 46.4 °F 55% 29.95 in - Calm Calm - N/A   Clear
1:00 AM 59.0 °F 44.6 °F 59% 29.95 in - Calm Calm - N/A   Clear
2:00 AM 58 °F 44 °F 50% 29.95 in 6 mi Calm Calm - -  
2:00 AM 57.2 °F 44.6 °F 63% 29.95 in - Calm Calm - N/A   Clear
3:00 AM 57.2 °F 44.6 °F 63% 29.95 in - Calm Calm - N/A   Clear
4:00 AM 55.4 °F 44.6 °F 67% 29.95 in - Calm Calm - N/A   Clear
5:00 AM 57.2 °F 44.6 °F 63% 29.95 in - Calm Calm - N/A   Clear
6:00 AM 53.6 °F 42.8 °F 67% 29.98 in - Calm Calm - N/A   Clear
7:00 AM 53.6 °F 44.6 °F 72% 29.98 in - Calm Calm - N/A   Clear
8:00 AM 58 °F 45 °F 52% 30.01 in 6 mi Calm Calm - -   Clear
8:00 AM 59.0 °F 44.6 °F 59% 30.01 in - Calm Calm - N/A   Clear
9:00 AM 64.4 °F 51.8 °F 64% 30.01 in 3.7 mi Calm Calm - N/A   Unknown
10:00 AM 68.0 °F 51.8 °F 56% 30.01 in 5.0 mi West 2.3 mph - N/A   Unknown
11:00 AM 71.6 °F 51.8 °F 50% 29.98 in - Calm Calm - N/A   Clear
12:00 PM 75.2 °F 48.2 °F 38% 29.95 in - NNW 4.6 mph - N/A   Clear
1:00 PM 75.2 °F 48.2 °F 38% 29.95 in - NNW 4.6 mph - N/A   Clear
2:00 PM 75 °F 44 °F 22% 29.93 in 6 mi West 10.4 mph - -   Clear
2:00 PM 75.2 °F 44.6 °F 34% 29.92 in - West 10.4 mph - N/A   Clear
3:00 PM 75.2 °F 44.6 °F 34% 29.92 in - NW 8.1 mph - N/A   Clear
4:00 PM 75.2 °F 48.2 °F 38% 29.92 in - NNW 3.5 mph - N/A   Clear
5:00 PM 71.6 °F 46.4 °F 41% 29.95 in - NW 3.5 mph - N/A   Clear
6:00 PM 68.0 °F 46.4 °F 46% 29.98 in - NW 4.6 mph - N/A   Clear
7:00 PM 66.2 °F 46.4 °F 49% 30.01 in - WNW 2.3 mph - N/A   Clear
8:00 PM 63 °F 44 °F 39% 30.01 in 6 mi Calm Calm - -  
8:00 PM 62.6 °F 44.6 °F 52% 30.01 in - Calm Calm - N/A   Clear
9:00 PM 59.0 °F 44.6 °F 59% 30.01 in - Calm Calm - N/A   Clear
10:00 PM 59.0 °F 42.8 °F 55% 30.04 in - Calm Calm - N/A   Clear
11:00 PM 59.0 °F 41.0 °F 51% 30.04 in - Calm Calm - N/A   Clear